Other Public Products
Issued by NWS Charleston, SC

Current Version | Previous Version | Graphics & Text | Print | Product List | Glossary On
Versions: 1 2 3 4 5 6 7 8 9 10 11 12 13 14 15 16 17 18 19 20 21 22 23 24 25 26 27 28 29 30 31 32 33 34 35 36 37 38 39 40 41 42 43 44 45 46 47 48 49 50
000
FPUS82 KCHS 191612
OPUCHS

TEST...KCHS/KSAV Gateway Observations...TEST
National Weather Service Charleston SC
1200 PM EDT SAT AUG 19 2017

NOTE: "fair" indicates few or no clouds below 12,000 feet with no
significant weather and/or obstructions to visibility.

SCZ050-WAZ558-NCZ071-TXZ119-213-PAZ071-DCZ001-FLZ074-172-MI076-
NYZ176-178-MAZ016-IL014-TNZ027-NJZ106-GAZ044-MD014-191700-

...Gateway Observations for Charleston International...

CITY           SKY/WX    TMP DP  RH WIND       PRES   REMARKS
Chas Airport   MOSUNNY   90  74  59 VRB6      29.96S HX  99
Seattle        PTSUNNY   62  51  67 N7        30.22R
Charlotte      PTSUNNY   87  66  49 NE8G18    30.02R
Dallas DFW     MOSUNNY   91  72  53 SW10      30.00R HX  98
Dallas Love    MOSUNNY   90  70  51 W8        30.00F HX  95
Philladelphia  MOSUNNY   85  62  46 W9        29.90R
Wash National  PTSUNNY   86  69  56 N13       29.93S HX  90
Baltimore      PTSUNNY   85  69  58 W6        29.92R
Miami          PTSUNNY   92  74  55 E9G17     30.01S HX 101
Detroit        PTSUNNY   76  61  59 NW9       29.93R
Newark         MOSUNNY   84  63  49 NW10      29.86S
Laguardia      PTSUNNY   84  66  54 NW3       29.85S
J F K          PTSUNNY   84  72  67 SW10      29.87S
Boston Logan   PTSUNNY   70  66  87 SE8       29.82S
Ft. Lauderdale MOSUNNY   89  76  65 E12G18    30.00S HX 100
Chicago O`Hare MOSUNNY   77  57  50 CALM      29.97R
Chicago Midway MOSUNNY   76  59  55 CALM      29.97R
Houston Bush   MOSUNNY   90  75  61 W6        30.02S HX 100
Houston Hobby  PTSUNNY   90  74  59 W7        30.02S HX  99
Nashville      MOSUNNY   86  67  52 SW5       30.02S
Atlanta        MOSUNNY   84  66  54 W3        30.05S

$$

GAZ044-118-TXZ119-213-NCZ071-DCZ001-MDZ014-506-PAZ021-071-NJZ106-
NYZ176-178-MAZ106-OHZ011-021-055-MIZ076-KYZ091-ILZ014-INZ047-
MNZ060-ONZ431-191700-

...Gateway Observations for Savannah International...

CITY           SKY/WX    TMP DP  RH WIND       PRES   REMARKS
Savannah Arpt  MOSUNNY   92  71  50 CALM      29.98F HX  98
Atlanta        MOSUNNY   84  66  54 W3        30.05S
Charlotte      PTSUNNY   87  66  49 NE8G18    30.02R
Dallas DFW     MOSUNNY   91  72  53 SW10      30.00R HX  98
Houston Bush   MOSUNNY   90  75  61 W6        30.02S HX 100
Wash National  PTSUNNY   86  69  56 N13       29.93S HX  90
Wash Dulles    MOSUNNY   83  67  58 W9        29.94R
Baltimore      PTSUNNY   85  69  58 W6        29.92R
Philadelphia   MOSUNNY   85  62  46 W9        29.90R
Newark         MOSUNNY   84  63  49 NW10      29.86S
Laguardia      PTSUNNY   84  66  54 NW3       29.85S
J F K          PTSUNNY   84  72  67 SW10      29.87S
Boston         PTSUNNY   70  66  87 SE8       29.82S
Pittsburg      CLOUDY    77  64  64 SW10      29.95F
Akron          MOSUNNY   75  65  70 SW10      29.94R
Cleveland      MOSUNNY   78  64  61 NW12      29.94S
Cincinnati     PTSUNNY   78  70  76 SW7       29.98R
Columbus       SUNNY     80  66  63 W10       29.95R
Detroit        PTSUNNY   76  61  59 NW9       29.93R
Chicago O`Hare MOSUNNY   77  57  50 CALM      29.97R
Minneapolis    SUNNY     69  60  73 VRB5      29.98R
Indianapolis   MOSUNNY   81  66  60 VRB5      29.96R
Toronto Canada PTSUNNY   75  61  60 SW18G24   29.83S

$$




USA.gov is the U.S. government's official web portal to all federal, state and local government web resources and services.